Location: Dumpton Point
(51.3500°N, 1.4433°E)
Time: 12:21:08
(UTC+00:00)

Cosmos 1741 Rocket - Pass Details

Date: 09 April 2020
Orbit: 762 x 782 km, 74.0° (Epoch: 26 May)

Event Time Altitude Azimuth Distance (km) Brightness Sun altitude
Exits shadow 21:21:07 13° 208° (SSW) 2,110 6.1 -22.0°
Maximum altitude 21:25:51 81° 295° (WNW) 799 4.1 -22.5°
Drops below altitude 10° 21:31:13 10° 23° (NNE) 2,348 6.8 -23.0°
Sets 21:33:37 0° 25° (NNE) 3,279 7.6 -23.3°
